• In Uzbekistan
  • List of Countries
  • For 7 days
  • Water Temperature
  • Weather Map
  • Weather Widgets
  • user-avatar
    Login

    Hourly Weather Stepanakert

    Today, 22 August, Thursday

    Time Temperature Precipitation Wind Pressure Humidity
    00:00 +23°C° 0 mm 2 mps 693 mmHg 32%
    01:00 +23°C° 0 mm 2 mps 692 mmHg 33%
    02:00 +23°C° 0 mm 2 mps 692 mmHg 33%
    03:00 +22°C° 0 mm 1 mps 692 mmHg 34%
    04:00 +22°C° 0 mm 1 mps 692 mmHg 35%
    05:00 +23°C° 0 mm 1 mps 692 mmHg 36%
    06:00 +23°C° 0 mm 1 mps 692 mmHg 36%
    07:00 +25°C° 0 mm 1 mps 693 mmHg 32%
    08:00 +27°C° 0 mm 2 mps 693 mmHg 28%
    09:00 +29°C° 0 mm 2 mps 693 mmHg 24%
    10:00 +30°C° 0 mm 2 mps 693 mmHg 22%
    11:00 +31°C° 0 mm 3 mps 693 mmHg 21%
    12:00 +34°C° 0 mm 3 mps 692 mmHg 20%
    13:00 +34°C° 0 mm 3 mps 692 mmHg 20%
    14:00 +34°C° 0 mm 3 mps 692 mmHg 20%
    15:00 +34°C° 0 mm 3 mps 692 mmHg 21%
    16:00 +33°C° 0 mm 3 mps 691 mmHg 23%
    17:00 +31°C° 0 mm 2 mps 691 mmHg 25%
    18:00 +30°C° 0 mm 2 mps 691 mmHg 28%
    19:00 +28°C° 0 mm 2 mps 691 mmHg 30%
    20:00 +26°C° 0 mm 1 mps 691 mmHg 33%
    21:00 +24°C° 0 mm 1 mps 691 mmHg 36%
    22:00 +23°C° 0 mm 1 mps 691 mmHg 36%
    23:00 +23°C° 0 mm 2 mps 691 mmHg 37%

    Tomorrow, 23 August, Friday

    Time Temperature Precipitation Wind Pressure Humidity
    00:00 +21°C° 0 mm 2 mps 691 mmHg 37%
    01:00 +21°C° 0 mm 2 mps 691 mmHg 38%
    02:00 +21°C° 0 mm 2 mps 691 mmHg 39%
    03:00 +20°C° 0 mm 2 mps 692 mmHg 39%
    04:00 +20°C° 0 mm 2 mps 692 mmHg 41%
    05:00 +20°C° 0 mm 2 mps 692 mmHg 44%
    06:00 +21°C° 0 mm 2 mps 692 mmHg 46%
    07:00 +24°C° 0 mm 2 mps 692 mmHg 42%
    08:00 +26°C° 0 mm 2 mps 693 mmHg 38%
    09:00 +28°C° 0 mm 2 mps 693 mmHg 35%
    10:00 +30°C° 0 mm 3 mps 693 mmHg 32%
    11:00 +31°C° 0 mm 3 mps 693 mmHg 30%
    12:00 +33°C° 0 mm 4 mps 692 mmHg 28%
    13:00 +34°C° 0 mm 4 mps 692 mmHg 27%
    14:00 +34°C° 0 mm 4 mps 692 mmHg 27%
    15:00 +34°C° 0 mm 4 mps 691 mmHg 26%
    16:00 +33°C° 0 mm 3 mps 691 mmHg 27%
    17:00 +31°C° 0 mm 3 mps 691 mmHg 27%
    18:00 +30°C° 0 mm 3 mps 691 mmHg 28%
    19:00 +28°C° 0 mm 3 mps 691 mmHg 30%
    20:00 +26°C° 0 mm 2 mps 691 mmHg 33%
    21:00 +24°C° 0 mm 1 mps 692 mmHg 36%
    22:00 +24°C° 0 mm 1 mps 691 mmHg 36%
    23:00 +24°C° 0 mm 2 mps 691 mmHg 35%

    Day after tomorrow, 24 August, Saturday

    Time Temperature Precipitation Wind Pressure Humidity
    00:00 +23°C° 0 mm 2 mps 691 mmHg 35%
    01:00 +23°C° 0 mm 2 mps 691 mmHg 36%
    02:00 +23°C° 0 mm 2 mps 691 mmHg 36%
    03:00 +21°C° 0 mm 2 mps 691 mmHg 36%
    04:00 +21°C° 0 mm 2 mps 691 mmHg 37%
    05:00 +21°C° 0 mm 2 mps 692 mmHg 38%
    06:00 +21°C° 0 mm 2 mps 692 mmHg 39%
    07:00 +25°C° 0 mm 2 mps 692 mmHg 36%
    08:00 +27°C° 0 mm 2 mps 693 mmHg 34%
    09:00 +29°C° 0 mm 2 mps 693 mmHg 31%
    10:00 +31°C° 0 mm 2 mps 693 mmHg 30%
    11:00 +33°C° 0 mm 3 mps 693 mmHg 29%
    12:00 +34°C° 0 mm 3 mps 693 mmHg 27%
    13:00 +34°C° 0 mm 3 mps 692 mmHg 27%
    14:00 +34°C° 0 mm 3 mps 692 mmHg 27%
    15:00 +35°C° 0 mm 3 mps 692 mmHg 26%
    16:00 +34°C° 0 mm 3 mps 692 mmHg 27%
    17:00 +33°C° 0 mm 3 mps 692 mmHg 27%
    18:00 +31°C° 0 mm 3 mps 692 mmHg 28%
    19:00 +29°C° 0 mm 2 mps 692 mmHg 30%
    20:00 +27°C° 0 mm 2 mps 692 mmHg 33%
    21:00 +25°C° 0 mm 1 mps 693 mmHg 35%
    22:00 +24°C° 0 mm 1 mps 693 mmHg 35%
    23:00 +24°C° 0 mm 2 mps 693 mmHg 35%

    25 August, Sunday

    Time Temperature Precipitation Wind Pressure Humidity
    00:00 +24°C° 0 mm 2 mps 693 mmHg 34%
    01:00 +24°C° 0 mm 2 mps 693 mmHg 35%
    02:00 +23°C° 0 mm 2 mps 692 mmHg 35%
    03:00 +23°C° 0 mm 2 mps 692 mmHg 35%
    04:00 +23°C° 0 mm 2 mps 692 mmHg 36%
    05:00 +23°C° 0 mm 2 mps 692 mmHg 37%
    06:00 +23°C° 0 mm 2 mps 693 mmHg 38%
    07:00 +25°C° 0 mm 2 mps 693 mmHg 34%
    08:00 +28°C° 0 mm 2 mps 693 mmHg 31%
    09:00 +30°C° 0 mm 2 mps 694 mmHg 27%
    10:00 +31°C° 0 mm 2 mps 693 mmHg 26%
    11:00 +33°C° 0 mm 3 mps 693 mmHg 26%
    12:00 +34°C° 0 mm 3 mps 693 mmHg 25%
    13:00 +34°C° 0 mm 3 mps 693 mmHg 25%
    14:00 +34°C° 0 mm 3 mps 692 mmHg 25%
    15:00 +35°C° 0 mm 3 mps 692 mmHg 24%
    16:00 +34°C° 0 mm 3 mps 692 mmHg 27%
    17:00 +31°C° 0 mm 2 mps 692 mmHg 30%
    18:00 +30°C° 0 mm 2 mps 692 mmHg 33%
    19:00 +28°C° 0 mm 2 mps 692 mmHg 37%
    20:00 +26°C° 0 mm 1 mps 692 mmHg 41%
    21:00 +24°C° 0 mm 1 mps 692 mmHg 45%
    22:00 +24°C° 0 mm 1 mps 692 mmHg 44%
    23:00 +24°C° 0 mm 1 mps 692 mmHg 42%

    26 August, Monday

    Time Temperature Precipitation Wind Pressure Humidity
    00:00 +23°C° 0 mm 1 mps 693 mmHg 41%
    01:00 +23°C° 0 mm 1 mps 692 mmHg 42%
    02:00 +23°C° 0 mm 1 mps 692 mmHg 42%
    03:00 +22°C° 0 mm 1 mps 692 mmHg 43%
    04:00 +22°C° 0 mm 1 mps 692 mmHg 44%
    05:00 +22°C° 0 mm 1 mps 693 mmHg 45%
    06:00 +22°C° 0 mm 1 mps 693 mmHg 46%
    07:00 +24°C° 0 mm 1 mps 693 mmHg 39%
    08:00 +27°C° 0 mm 2 mps 694 mmHg 32%
    09:00 +29°C° 0 mm 2 mps 694 mmHg 25%
    10:00 +30°C° 0.1 mm 2 mps 694 mmHg 24%
    11:00 +31°C° 0.1 mm 3 mps 694 mmHg 23%
    12:00 +33°C° 0.1 mm 3 mps 694 mmHg 22%
    13:00 +33°C° 0.3 mm 3 mps 693 mmHg 24%
    14:00 +31°C° 0.3 mm 3 mps 693 mmHg 25%
    15:00 +31°C° 0.3 mm 3 mps 692 mmHg 27%
    16:00 +30°C° 0.1 mm 3 mps 692 mmHg 30%
    17:00 +29°C° 0.1 mm 2 mps 692 mmHg 34%
    18:00 +27°C° 0.1 mm 1 mps 692 mmHg 37%
    19:00 +26°C° 0.1 mm 1 mps 693 mmHg 39%
    20:00 +25°C° 0.1 mm 1 mps 694 mmHg 41%
    21:00 +24°C° 0.1 mm 1 mps 694 mmHg 43%
    22:00 +23°C° 0.1 mm 1 mps 694 mmHg 46%
    23:00 +23°C° 0.1 mm 1 mps 694 mmHg 48%

    27 August, Tuesday

    Time Temperature Precipitation Wind Pressure Humidity
    00:00 +23°C° 0.1 mm 2 mps 694 mmHg 50%
    01:00 +21°C° 0 mm 2 mps 694 mmHg 50%
    02:00 +21°C° 0 mm 2 mps 693 mmHg 51%
    03:00 +20°C° 0 mm 2 mps 693 mmHg 51%
    04:00 +20°C° 0 mm 2 mps 693 mmHg 50%
    05:00 +21°C° 0 mm 1 mps 693 mmHg 49%
    06:00 +21°C° 0 mm 1 mps 693 mmHg 49%
    07:00 +23°C° 0 mm 2 mps 693 mmHg 46%
    08:00 +25°C° 0 mm 2 mps 694 mmHg 43%
    09:00 +26°C° 0 mm 3 mps 694 mmHg 40%
    10:00 +28°C° 0 mm 4 mps 693 mmHg 39%
    11:00 +29°C° 0 mm 4 mps 693 mmHg 38%
    12:00 +30°C° 0 mm 4 mps 693 mmHg 37%
    13:00 +30°C° 0 mm 4 mps 692 mmHg 38%
    14:00 +30°C° 0 mm 4 mps 692 mmHg 39%
    15:00 +32°C° 0 mm 4 mps 691 mmHg 39%
    16:00 +29°C° 0 mm 4 mps 691 mmHg 43%
    17:00 +28°C° 0 mm 3 mps 691 mmHg 47%
    18:00 +26°C° 0 mm 3 mps 691 mmHg 51%
    19:00 +25°C° 0 mm 2 mps 691 mmHg 57%
    20:00 +23°C° 0 mm 2 mps 691 mmHg 63%
    21:00 +22°C° 0 mm 1 mps 691 mmHg 69%
    22:00 +21°C° 0 mm 1 mps 691 mmHg 70%
    23:00 +21°C° 0 mm 1 mps 690 mmHg 71%
    Show more